START_TIME,STEP,MOV.,M29,t_acc.,H22,t_acc.,H26,t_acc.,H30,t_acc.
1979-08-07 06:00:30.410 ,1,1,0.,24.0,0.,24.0,0.,24.0,0.,24.0
1979-08-07 06:00:54.410 ,2,1,0.,24.0,0.,24.0,0.,24.0,0.,24.0
1979-08-07 06:01:18.410 ,6,1,0.,24.0,0.,24.0,0.,24.0,0.,24.0
1979-08-07 06:01:42.410 ,5,1,0.,24.0,0.,24.0,0.,24.0,0.,24.0
1979-08-07 06:02:06.410 ,1,1,0.,24.0,0.,24.0,0.,24.0,0.,24.0
1979-08-07 06:02:30.410 ,2,1,0.,24.0,0.,24.0,0.,24.0,0.,24.0
1979-08-07 06:02:54.410 ,6,1,0.,24.0,0.,24.0,0.,24.0,0.,24.0
1979-08-07 06:03:18.410 ,5,1,0.,24.0,0.,24.0,0.,24.0,0.,24.0
1979-08-07 06:03:42.410 ,1,1,0.,24.0,0.,24.0,0.,24.0,0.,24.0
1979-08-07 06:04:06.410 ,2,1,0.,24.0,0.,24.0,0.,24.0,0.,24.0
1979-08-07 06:04:30.410 ,6,1,0.,24.0,0.,24.0,0.,24.0,0.,24.0
1979-08-07 06:04:54.410 ,5,1,0.,24.0,0.,24.0,0.,24.0,0.,24.0
1979-08-07 06:05:18.410 ,1,1,0.,24.0,0.,24.0,0.,24.0,0.,24.0
1979-08-07 06:05:42.410 ,0,0,0.,24.0,0.,24.0,0.,24.0,0.,24.0
1979-08-07 06:06:06.410 ,0,0,0.,24.0,0.,24.0,0.,24.0,0.,24.0
1979-08-07 06:06:30.410 ,5,1,0.,24.0,0.,24.0,0.,24.0,0.,24.0
1979-08-07 06:06:54.410 ,5,0,0.,24.0,0.,24.0,0.,24.0,0.,24.0
1979-08-07 06:07:18.410 ,4,1,0.,24.0,0.,24.0,0.,24.0,0.,24.0
1979-08-07 06:07:42.410 ,4,0,0.,24.0,0.,24.0,0.,24.0,0.,24.0
1979-08-07 06:08:06.410 ,3,1,0.,24.0,0.,24.0,0.,24.0,0.,24.0
1979-08-07 06:08:30.410 ,3,0,0.,24.0,0.,24.0,0.,24.0,0.,24.0
1979-08-07 06:08:54.410 ,2,1,0.,24.0,0.,24.0,0.,24.0,0.,24.0
1979-08-07 06:09:18.410 ,2,0,0.,24.0,0.,24.0,0.,24.0,0.,24.0
1979-08-07 06:09:42.410 ,1,1,0.,24.0,0.,24.0,0.,24.0,0.,24.0
1979-08-07 06:10:06.410 ,1,0,0.,24.0,0.,24.0,0.,24.0,0.,24.0
1979-08-07 06:10:30.410 ,0,1,0.,24.0,0.,24.0,0.,24.0,0.,24.0
1979-08-07 06:10:54.410 ,0,0,0.,24.0,0.,24.0,0.,24.0,0.,24.0
1979-08-07 06:11:18.410 ,0,1,0.,24.0,0.,24.0,0.,24.0,0.,24.0
1979-08-07 06:11:42.410 ,0,0,0.,24.0,0.,24.0,0.,24.0,0.,24.0
1979-08-07 06:12:06.410 ,1,1,0.,24.0,0.,24.0,0.,24.0,0.,24.0
1979-08-07 06:12:30.410 ,1,0,0.,24.0,0.,24.0,0.,24.0,0.,24.0
1979-08-07 06:12:54.410 ,2,1,0.,24.0,0.,24.0,0.,24.0,0.,24.0
1979-08-07 06:13:18.410 ,2,0,0.,24.0,0.,24.0,0.,24.0,0.,24.0
1979-08-07 06:13:42.410 ,3,1,0.,24.0,0.,24.0,0.,24.0,0.,24.0
1979-08-07 06:14:06.410 ,3,0,0.,24.0,0.,24.0,0.,24.0,0.,24.0
1979-08-07 06:14:30.410 ,4,1,0.,24.0,0.,24.0,0.,24.0,0.,24.0
1979-08-07 06:14:54.410 ,4,0,0.,24.0,0.,24.0,0.,24.0,0.,24.0
1979-08-07 06:15:18.410 ,5,1,0.,24.0,0.,24.0,0.,24.0,0.,24.0
1979-08-07 06:15:42.410 ,5,0,0.,24.0,0.,24.0,0.,24.0,0.,24.0
1979-08-07 06:16:06.410 ,6,1,0.,24.0,0.,24.0,0.,24.0,0.,24.0
1979-08-07 06:16:30.410 ,6,0,0.,24.0,0.,24.0,0.,24.0,0.,24.0
1979-08-07 06:16:54.410 ,7,1,0.,24.0,0.,24.0,0.,24.0,0.,24.0
1979-08-07 06:17:18.410 ,7,0,0.,24.0,0.,24.0,0.,24.0,0.,24.0
1979-08-07 06:17:42.410 ,7,1,0.,24.0,0.,24.0,0.,24.0,0.,24.0
1979-08-07 06:18:06.410 ,7,0,0.,24.0,0.,24.0,0.,24.0,0.,24.0
1979-08-07 06:18:30.410 ,6,1,0.,24.0,0.,24.0,0.,24.0,0.,24.0
1979-08-07 06:18:54.410 ,6,0,0.,24.0,0.,24.0,0.,24.0,0.,24.0
1979-08-07 06:19:18.410 ,5,1,0.,24.0,0.,24.0,0.,24.0,0.,24.0
1979-08-07 06:19:42.410 ,5,0,0.,24.0,0.,24.0,0.,24.0,0.,24.0
1979-08-07 06:20:06.410 ,4,1,0.,24.0,0.,24.0,0.,24.0,0.,24.0
1979-08-07 06:20:30.410 ,4,0,0.,24.0,0.,24.0,0.,24.0,0.,24.0
1979-08-07 06:20:54.410 ,3,1,0.,24.0,0.,24.0,0.,24.0,0.,24.0
1979-08-07 06:21:18.410 ,3,0,0.,24.0,0.,24.0,0.,24.0,0.,24.0
1979-08-07 06:21:42.410 ,2,1,0.,24.0,0.,24.0,0.,24.0,0.,24.0
1979-08-07 06:22:06.410 ,2,0,0.,24.0,0.,24.0,0.,24.0,0.,24.0
1979-08-07 06:22:30.410 ,1,1,0.,24.0,0.,24.0,0.,24.0,0.,24.0
1979-08-07 06:22:54.410 ,1,0,0.,24.0,0.,24.0,0.,24.0,0.,24.0
1979-08-07 06:23:18.410 ,0,1,0.,24.0,0.,24.0,0.,24.0,0.,24.0
1979-08-07 06:23:42.410 ,0,0,0.,24.0,0.,24.0,0.,24.0,0.,24.0
1979-08-07 06:24:06.410 ,0,1,0.,24.0,0.,24.0,0.,24.0,0.,24.0
1979-08-07 06:24:30.410 ,0,0,0.,24.0,0.,24.0,0.,24.0,0.,24.0
1979-08-07 06:24:54.410 ,1,1,0.,24.0,0.,24.0,0.,24.0,0.,24.0
1979-08-07 06:25:18.410 ,1,0,0.,24.0,0.,24.0,0.,24.0,0.,24.0
1979-08-07 06:25:42.410 ,2,1,0.,24.0,0.,24.0,0.,24.0,0.,24.0
1979-08-07 06:26:06.410 ,2,0,0.,24.0,0.,24.0,0.,24.0,0.,24.0
1979-08-07 06:26:30.410 ,3,1,0.,24.0,0.,24.0,0.,24.0,0.,24.0
1979-08-07 06:26:54.410 ,3,0,0.,24.0,0.,24.0,0.,24.0,0.,24.0
1979-08-07 06:27:18.410 ,4,1,0.,24.0,0.,24.0,0.,24.0,0.,24.0
1979-08-07 06:27:42.410 ,4,0,1.,24.0,0.,24.0,0.,24.0,0.,24.0
1979-08-07 06:28:06.410 ,5,1,0.,24.0,0.,24.0,0.,24.0,0.,24.0
1979-08-07 06:28:30.410 ,5,0,0.,24.0,0.,24.0,0.,24.0,0.,24.0
1979-08-07 06:28:54.410 ,6,1,0.,24.0,0.,24.0,0.,24.0,0.,24.0
1979-08-07 06:29:18.410 ,6,0,0.,24.0,0.,24.0,0.,24.0,0.,24.0
1979-08-07 06:29:42.410 ,7,1,0.,24.0,0.,24.0,0.,24.0,0.,24.0
1979-08-07 06:30:06.410 ,7,0,0.,24.0,0.,24.0,0.,24.0,0.,24.0
1979-08-07 06:30:30.410 ,7,1,0.,24.0,0.,24.0,0.,24.0,0.,24.0
1979-08-07 06:30:54.410 ,7,0,0.,24.0,0.,24.0,0.,24.0,0.,24.0
1979-08-07 06:31:18.410 ,6,1,0.,24.0,0.,24.0,0.,24.0,0.,24.0
1979-08-07 06:31:42.410 ,6,0,0.,24.0,0.,24.0,0.,24.0,0.,24.0
1979-08-07 06:32:06.410 ,5,1,0.,24.0,0.,24.0,0.,24.0,0.,24.0
1979-08-07 06:32:30.410 ,5,0,1.,24.0,0.,24.0,0.,24.0,0.,24.0
1979-08-07 06:32:54.410 ,4,1,0.,24.0,0.,24.0,0.,24.0,0.,24.0
1979-08-07 06:33:18.410 ,4,0,0.,24.0,0.,24.0,0.,24.0,0.,24.0
1979-08-07 06:33:42.410 ,3,1,0.,24.0,0.,24.0,0.,24.0,0.,24.0
1979-08-07 06:34:06.410 ,3,0,0.,24.0,0.,24.0,0.,24.0,0.,24.0
1979-08-07 06:34:30.410 ,2,1,0.,24.0,0.,24.0,0.,24.0,0.,24.0
1979-08-07 06:34:54.410 ,2,0,0.,24.0,0.,24.0,0.,24.0,0.,24.0
1979-08-07 06:35:18.410 ,1,1,0.,24.0,0.,24.0,0.,24.0,0.,24.0
1979-08-07 06:35:42.410 ,1,0,0.,24.0,0.,24.0,0.,24.0,0.,24.0
1979-08-07 06:36:06.410 ,0,1,0.,24.0,0.,24.0,0.,24.0,0.,24.0
1979-08-07 06:36:30.410 ,0,0,0.,24.0,0.,24.0,0.,24.0,0.,24.0
1979-08-07 06:36:54.410 ,0,1,0.,24.0,0.,24.0,0.,24.0,0.,24.0
1979-08-07 06:37:18.410 ,0,0,0.,24.0,0.,24.0,0.,24.0,0.,24.0
1979-08-07 06:37:42.410 ,1,1,0.,24.0,0.,24.0,0.,24.0,0.,24.0
1979-08-07 06:38:06.410 ,1,0,0.,24.0,0.,24.0,0.,24.0,0.,24.0
1979-08-07 06:38:30.410 ,2,1,0.,24.0,0.,24.0,0.,24.0,0.,24.0
1979-08-07 06:38:54.410 ,2,0,0.,24.0,0.,24.0,0.,24.0,0.,24.0
1979-08-07 06:39:18.410 ,3,1,0.,24.0,0.,24.0,0.,24.0,0.,24.0
1979-08-07 06:39:42.410 ,3,0,0.,24.0,0.,24.0,0.,24.0,0.,24.0
1979-08-07 06:40:06.410 ,4,1,0.,24.0,0.,24.0,0.,24.0,0.,24.0
1979-08-07 06:40:30.410 ,4,0,0.,24.0,0.,24.0,0.,24.0,0.,24.0
1979-08-07 06:40:54.410 ,5,1,0.,24.0,0.,24.0,0.,24.0,0.,24.0
1979-08-07 06:41:18.410 ,5,0,0.,24.0,0.,24.0,0.,24.0,0.,24.0
1979-08-07 06:41:42.410 ,6,1,0.,24.0,0.,24.0,0.,24.0,0.,24.0
1979-08-07 06:42:06.410 ,0,0,0.,24.0,0.,24.0,0.,24.0,0.,24.0
1979-08-07 06:42:40.610 ,7,0,,0,,0,,0,,0
1979-08-07 06:42:54.410 ,7,0,0.,24.0,0.,24.0,0.,24.0,0.,24.0
1979-08-07 06:43:18.410 ,5,1,0.,24.0,0.,24.0,0.,24.0,0.,24.0
1979-08-07 06:43:42.410 ,1,1,0.,24.0,0.,24.0,0.,24.0,0.,24.0
1979-08-07 06:44:06.410 ,2,1,0.,24.0,0.,24.0,0.,24.0,0.,24.0
1979-08-07 06:44:30.410 ,6,1,0.,24.0,0.,24.0,0.,24.0,0.,24.0
1979-08-07 06:44:54.410 ,5,1,0.,24.0,0.,24.0,0.,24.0,0.,24.0
1979-08-07 06:45:18.410 ,1,1,0.,24.0,0.,24.0,0.,24.0,0.,24.0
1979-08-07 06:45:42.410 ,2,1,0.,24.0,0.,24.0,0.,24.0,0.,24.0
1979-08-07 06:46:06.410 ,6,1,0.,24.0,0.,24.0,0.,24.0,0.,24.0
1979-08-07 06:46:30.410 ,5,1,0.,24.0,0.,24.0,0.,24.0,0.,24.0
1979-08-07 06:46:54.410 ,1,1,0.,24.0,0.,24.0,0.,24.0,0.,24.0
1979-08-07 06:47:18.410 ,2,1,0.,24.0,0.,24.0,0.,24.0,0.,24.0
1979-08-07 06:47:42.410 ,6,1,0.,24.0,0.,24.0,0.,24.0,0.,24.0
1979-08-07 06:48:06.410 ,5,1,0.,24.0,0.,24.0,0.,24.0,0.,24.0
1979-08-07 06:48:30.410 ,1,1,0.,24.0,0.,24.0,0.,24.0,0.,24.0
1979-08-07 06:48:54.410 ,2,1,0.,24.0,0.,24.0,0.,24.0,0.,24.0
1979-08-07 06:49:18.410 ,6,1,0.,24.0,0.,24.0,0.,24.0,0.,24.0
1979-08-07 06:49:42.410 ,5,1,0.,24.0,0.,24.0,0.,24.0,0.,24.0
1979-08-07 06:50:06.410 ,1,1,0.,24.0,0.,24.0,0.,24.0,1.,24.0
1979-08-07 06:50:30.410 ,2,1,0.,24.0,0.,24.0,0.,24.0,0.,24.0
1979-08-07 06:50:54.410 ,6,1,0.,24.0,0.,24.0,0.,24.0,0.,24.0
1979-08-07 06:51:18.410 ,5,1,0.,24.0,0.,24.0,0.,24.0,0.,24.0
1979-08-07 06:51:42.410 ,1,1,0.,24.0,0.,24.0,0.,24.0,0.,24.0
1979-08-07 06:52:06.410 ,2,1,0.,24.0,0.,24.0,0.,24.0,0.,24.0
1979-08-07 06:52:30.410 ,6,1,0.,24.0,0.,24.0,0.,24.0,0.,24.0
1979-08-07 06:52:54.410 ,5,1,0.,24.0,0.,24.0,0.,24.0,0.,24.0
1979-08-07 06:53:18.410 ,1,1,0.,24.0,0.,24.0,0.,24.0,0.,24.0
1979-08-07 06:53:42.410 ,0,0,0.,24.0,0.,24.0,0.,24.0,0.,24.0
1979-08-07 06:54:06.410 ,0,0,0.,24.0,0.,24.0,0.,24.0,0.,24.0
1979-08-07 06:54:30.410 ,5,1,0.,24.0,0.,24.0,0.,24.0,0.,24.0
1979-08-07 06:54:54.410 ,5,0,0.,24.0,0.,24.0,0.,24.0,0.,24.0
1979-08-07 06:55:18.410 ,4,1,0.,24.0,0.,24.0,0.,24.0,0.,24.0
1979-08-07 06:55:42.410 ,4,0,0.,24.0,0.,24.0,0.,24.0,0.,24.0
1979-08-07 06:56:06.410 ,3,1,0.,24.0,0.,24.0,0.,24.0,0.,24.0
1979-08-07 06:56:30.410 ,3,0,0.,24.0,0.,24.0,0.,24.0,0.,24.0
1979-08-07 06:56:54.410 ,2,1,0.,24.0,0.,24.0,0.,24.0,0.,24.0
1979-08-07 06:57:18.410 ,2,0,0.,24.0,0.,24.0,0.,24.0,0.,24.0
1979-08-07 06:57:42.410 ,1,1,0.,24.0,0.,24.0,0.,24.0,0.,24.0
1979-08-07 06:58:06.410 ,1,0,0.,24.0,0.,24.0,0.,24.0,0.,24.0
1979-08-07 06:58:30.410 ,0,1,0.,24.0,0.,24.0,0.,24.0,0.,24.0
1979-08-07 06:58:54.410 ,0,0,0.,24.0,0.,24.0,0.,24.0,0.,24.0
1979-08-07 06:59:18.410 ,0,1,0.,24.0,0.,24.0,0.,24.0,0.,24.0
1979-08-07 06:59:42.410 ,0,0,0.,24.0,0.,24.0,0.,24.0,0.,24.0
1979-08-07 07:00:06.410 ,1,1,0.,24.0,0.,24.0,0.,24.0,0.,24.0
1979-08-07 07:00:30.410 ,1,0,0.,24.0,0.,24.0,0.,24.0,0.,24.0
1979-08-07 07:00:54.410 ,2,1,0.,24.0,0.,24.0,0.,24.0,0.,24.0
1979-08-07 07:01:18.410 ,2,0,0.,24.0,0.,24.0,0.,24.0,0.,24.0
1979-08-07 07:01:42.410 ,3,1,0.,24.0,0.,24.0,0.,24.0,0.,24.0
1979-08-07 07:02:06.410 ,3,0,0.,24.0,0.,24.0,0.,24.0,0.,24.0
1979-08-07 07:02:30.410 ,4,1,0.,24.0,0.,24.0,0.,24.0,0.,24.0
1979-08-07 07:02:54.410 ,4,0,0.,24.0,0.,24.0,0.,24.0,0.,24.0
1979-08-07 07:03:18.410 ,5,1,0.,24.0,0.,24.0,0.,24.0,0.,24.0
1979-08-07 07:03:42.410 ,5,0,0.,24.0,0.,24.0,0.,24.0,0.,24.0
1979-08-07 07:04:06.410 ,6,1,0.,24.0,0.,24.0,0.,24.0,0.,24.0
1979-08-07 07:04:30.410 ,6,0,0.,24.0,0.,24.0,0.,24.0,0.,24.0
1979-08-07 07:04:54.410 ,7,1,0.,24.0,0.,24.0,0.,24.0,0.,24.0
1979-08-07 07:05:18.410 ,7,0,0.,24.0,0.,24.0,0.,24.0,0.,24.0
1979-08-07 07:05:42.410 ,7,1,0.,24.0,0.,24.0,0.,24.0,0.,24.0
1979-08-07 07:06:06.410 ,7,0,0.,24.0,0.,24.0,0.,24.0,0.,24.0
1979-08-07 07:06:30.410 ,6,1,0.,24.0,0.,24.0,0.,24.0,0.,24.0
1979-08-07 07:06:54.410 ,6,0,0.,24.0,0.,24.0,0.,24.0,0.,24.0
1979-08-07 07:07:18.410 ,5,1,0.,24.0,0.,24.0,0.,24.0,0.,24.0
1979-08-07 07:07:42.410 ,5,0,0.,24.0,0.,24.0,0.,24.0,0.,24.0
1979-08-07 07:08:06.410 ,4,1,0.,24.0,0.,24.0,0.,24.0,0.,24.0
1979-08-07 07:08:30.410 ,4,0,0.,24.0,0.,24.0,0.,24.0,0.,24.0
1979-08-07 07:08:54.410 ,3,1,0.,24.0,0.,24.0,0.,24.0,0.,24.0
1979-08-07 07:09:18.410 ,3,0,0.,24.0,0.,24.0,0.,24.0,0.,24.0
1979-08-07 07:09:42.410 ,2,1,0.,24.0,0.,24.0,0.,24.0,0.,24.0
1979-08-07 07:10:06.410 ,2,0,0.,24.0,0.,24.0,0.,24.0,0.,24.0
1979-08-07 07:10:30.410 ,1,1,0.,24.0,0.,24.0,0.,24.0,0.,24.0
1979-08-07 07:10:54.410 ,1,0,0.,24.0,0.,24.0,0.,24.0,0.,24.0
1979-08-07 07:11:18.410 ,0,1,0.,24.0,0.,24.0,0.,24.0,0.,24.0
1979-08-07 07:11:42.410 ,0,0,0.,24.0,0.,24.0,0.,24.0,0.,24.0
1979-08-07 07:12:06.410 ,0,1,0.,24.0,0.,24.0,0.,24.0,0.,24.0
1979-08-07 07:12:30.410 ,0,0,0.,24.0,0.,24.0,0.,24.0,0.,24.0
1979-08-07 07:12:54.410 ,1,1,0.,24.0,0.,24.0,0.,24.0,0.,24.0
1979-08-07 07:13:18.410 ,1,0,0.,24.0,0.,24.0,0.,24.0,0.,24.0
1979-08-07 07:13:42.410 ,2,1,0.,24.0,0.,24.0,0.,24.0,0.,24.0
1979-08-07 07:14:06.410 ,2,0,0.,24.0,0.,24.0,0.,24.0,0.,24.0
1979-08-07 07:14:30.410 ,3,1,0.,24.0,0.,24.0,0.,24.0,0.,24.0
1979-08-07 07:14:54.410 ,3,0,0.,24.0,0.,24.0,0.,24.0,0.,24.0
1979-08-07 07:15:18.410 ,4,1,0.,24.0,0.,24.0,0.,24.0,0.,24.0
1979-08-07 07:15:42.410 ,4,0,0.,24.0,0.,24.0,0.,24.0,0.,24.0
1979-08-07 07:16:06.410 ,5,1,0.,24.0,0.,24.0,0.,24.0,0.,24.0
1979-08-07 07:16:30.410 ,5,0,0.,24.0,0.,24.0,0.,24.0,0.,24.0
1979-08-07 07:16:54.410 ,6,1,0.,24.0,0.,24.0,0.,24.0,0.,24.0
1979-08-07 07:17:18.410 ,6,0,0.,24.0,0.,24.0,0.,24.0,0.,24.0
1979-08-07 07:17:42.410 ,7,1,0.,24.0,0.,24.0,0.,24.0,0.,24.0
1979-08-07 07:18:06.410 ,7,0,0.,24.0,0.,24.0,0.,24.0,0.,24.0
1979-08-07 07:18:30.410 ,7,1,0.,24.0,0.,24.0,0.,24.0,0.,24.0
1979-08-07 07:18:54.410 ,7,0,0.,24.0,0.,24.0,0.,24.0,0.,24.0
1979-08-07 07:19:18.410 ,6,1,0.,24.0,0.,24.0,0.,24.0,0.,24.0
1979-08-07 07:19:42.410 ,6,0,0.,24.0,0.,24.0,0.,24.0,0.,24.0
1979-08-07 07:20:06.410 ,5,1,0.,24.0,0.,24.0,0.,24.0,0.,24.0
1979-08-07 07:20:30.410 ,5,0,0.,24.0,0.,24.0,0.,24.0,0.,24.0
1979-08-07 07:20:54.410 ,4,1,0.,24.0,0.,24.0,0.,24.0,0.,24.0
1979-08-07 07:21:18.410 ,4,0,0.,24.0,0.,24.0,0.,24.0,0.,24.0
1979-08-07 07:21:42.410 ,3,1,0.,24.0,0.,24.0,0.,24.0,0.,24.0
1979-08-07 07:22:06.410 ,3,0,0.,24.0,0.,24.0,0.,24.0,0.,24.0
1979-08-07 07:22:30.410 ,2,1,0.,24.0,0.,24.0,0.,24.0,0.,24.0
1979-08-07 07:22:54.410 ,2,0,0.,24.0,0.,24.0,0.,24.0,0.,24.0
1979-08-07 07:23:18.410 ,1,1,0.,24.0,0.,24.0,0.,24.0,0.,24.0
1979-08-07 07:23:42.410 ,1,0,0.,24.0,0.,24.0,0.,24.0,0.,24.0
1979-08-07 07:24:06.410 ,0,1,0.,24.0,0.,24.0,0.,24.0,0.,24.0
1979-08-07 07:24:30.410 ,0,0,0.,24.0,0.,24.0,0.,24.0,0.,24.0
1979-08-07 07:24:54.410 ,0,1,0.,24.0,0.,24.0,0.,24.0,0.,24.0
1979-08-07 07:25:18.410 ,0,0,0.,24.0,0.,24.0,0.,24.0,0.,24.0
1979-08-07 07:25:42.410 ,1,1,0.,24.0,0.,24.0,0.,24.0,0.,24.0
1979-08-07 07:26:06.410 ,1,0,0.,24.0,0.,24.0,0.,24.0,0.,24.0
1979-08-07 07:26:30.410 ,2,1,0.,24.0,0.,24.0,0.,24.0,0.,24.0
1979-08-07 07:26:54.410 ,2,0,0.,24.0,0.,24.0,0.,24.0,0.,24.0
1979-08-07 07:27:18.410 ,3,1,0.,24.0,0.,24.0,0.,24.0,0.,24.0
1979-08-07 07:27:42.410 ,3,0,0.,24.0,0.,24.0,0.,24.0,0.,24.0
1979-08-07 07:28:06.410 ,4,1,0.,24.0,0.,24.0,0.,24.0,0.,24.0
1979-08-07 07:28:30.410 ,4,0,0.,24.0,0.,24.0,0.,24.0,0.,24.0
1979-08-07 07:28:54.410 ,5,1,0.,24.0,0.,24.0,0.,24.0,0.,24.0
1979-08-07 07:29:18.410 ,5,0,0.,24.0,0.,24.0,0.,24.0,0.,24.0
1979-08-07 07:29:42.410 ,6,1,0.,24.0,0.,24.0,0.,24.0,0.,24.0
1979-08-07 07:30:06.410 ,6,0,0.,24.0,0.,24.0,0.,24.0,0.,24.0
1979-08-07 07:30:30.410 ,7,0,0.,24.0,0.,24.0,0.,24.0,0.,24.0
1979-08-07 07:30:54.410 ,7,0,0.,24.0,0.,24.0,0.,24.0,0.,24.0
1979-08-07 07:31:18.410 ,5,1,0.,24.0,0.,24.0,0.,24.0,0.,24.0
1979-08-07 07:31:42.410 ,1,1,0.,24.0,0.,24.0,0.,24.0,0.,24.0
1979-08-07 07:32:06.410 ,2,1,0.,24.0,0.,24.0,0.,24.0,0.,24.0
1979-08-07 07:32:30.410 ,6,1,0.,24.0,0.,24.0,0.,24.0,0.,24.0
1979-08-07 07:32:54.410 ,5,1,0.,24.0,0.,24.0,0.,24.0,0.,24.0
1979-08-07 07:33:18.410 ,1,1,0.,24.0,0.,24.0,0.,24.0,0.,24.0
1979-08-07 07:33:42.410 ,2,1,0.,24.0,0.,24.0,0.,24.0,0.,24.0
1979-08-07 07:34:06.410 ,6,1,0.,24.0,0.,24.0,0.,24.0,0.,24.0
1979-08-07 07:34:30.410 ,5,1,0.,24.0,0.,24.0,0.,24.0,0.,24.0
1979-08-07 07:34:54.410 ,1,1,0.,24.0,0.,24.0,0.,24.0,0.,24.0
1979-08-07 07:35:18.410 ,2,1,0.,24.0,0.,24.0,0.,24.0,0.,24.0
1979-08-07 07:35:42.410 ,6,1,0.,24.0,0.,24.0,0.,24.0,0.,24.0
1979-08-07 07:36:06.410 ,5,1,0.,24.0,0.,24.0,0.,24.0,0.,24.0
1979-08-07 07:36:30.410 ,1,1,0.,24.0,0.,24.0,0.,24.0,0.,24.0
1979-08-07 07:36:54.410 ,2,1,0.,24.0,0.,24.0,0.,24.0,0.,24.0
1979-08-07 07:37:18.410 ,6,1,0.,24.0,0.,24.0,0.,24.0,0.,24.0
1979-08-07 07:37:42.410 ,5,1,0.,24.0,0.,24.0,0.,24.0,0.,24.0
1979-08-07 07:38:06.410 ,1,1,0.,24.0,0.,24.0,0.,24.0,0.,24.0
1979-08-07 07:38:30.410 ,2,1,0.,24.0,0.,24.0,0.,24.0,0.,24.0
1979-08-07 07:38:54.410 ,6,1,0.,24.0,0.,24.0,0.,24.0,0.,24.0
1979-08-07 07:39:18.410 ,5,1,0.,24.0,0.,24.0,0.,24.0,0.,24.0
1979-08-07 07:39:42.410 ,1,1,0.,24.0,0.,24.0,0.,24.0,0.,24.0
1979-08-07 07:40:06.410 ,2,1,0.,24.0,0.,24.0,0.,24.0,0.,24.0
1979-08-07 07:40:30.410 ,6,1,0.,24.0,0.,24.0,0.,24.0,0.,24.0
1979-08-07 07:40:54.410 ,5,1,0.,24.0,0.,24.0,0.,24.0,0.,24.0
1979-08-07 07:41:18.410 ,1,1,0.,24.0,0.,24.0,0.,24.0,0.,24.0
1979-08-07 07:41:42.410 ,0,0,0.,24.0,0.,24.0,0.,24.0,0.,24.0
1979-08-07 07:42:06.410 ,0,0,0.,24.0,0.,24.0,0.,24.0,0.,24.0
1979-08-07 07:42:30.410 ,5,1,0.,24.0,0.,24.0,0.,24.0,0.,24.0
1979-08-07 07:42:54.410 ,5,0,0.,24.0,0.,24.0,0.,24.0,0.,24.0
1979-08-07 07:43:18.410 ,4,1,0.,24.0,0.,24.0,0.,24.0,0.,24.0
1979-08-07 07:43:42.410 ,4,0,0.,24.0,0.,24.0,0.,24.0,0.,24.0
1979-08-07 07:44:06.410 ,3,1,0.,24.0,0.,24.0,0.,24.0,0.,24.0
1979-08-07 07:44:30.410 ,3,0,0.,24.0,0.,24.0,0.,24.0,0.,24.0
1979-08-07 07:44:54.410 ,2,1,0.,24.0,0.,24.0,0.,24.0,0.,24.0
1979-08-07 07:45:18.410 ,2,0,0.,24.0,0.,24.0,0.,24.0,0.,24.0
1979-08-07 07:45:42.410 ,1,1,0.,24.0,0.,24.0,0.,24.0,0.,24.0
1979-08-07 07:46:06.410 ,1,0,0.,24.0,0.,24.0,0.,24.0,0.,24.0
1979-08-07 07:46:30.410 ,0,1,0.,24.0,0.,24.0,0.,24.0,0.,24.0
1979-08-07 07:46:54.410 ,0,0,0.,24.0,0.,24.0,0.,24.0,0.,24.0
1979-08-07 07:47:18.410 ,0,1,0.,24.0,0.,24.0,0.,24.0,0.,24.0
1979-08-07 07:47:42.410 ,0,0,0.,24.0,0.,24.0,0.,24.0,0.,24.0
1979-08-07 07:48:06.410 ,1,1,0.,24.0,0.,24.0,0.,24.0,0.,24.0
1979-08-07 07:48:30.410 ,1,0,0.,24.0,0.,24.0,0.,24.0,0.,24.0
1979-08-07 07:48:54.410 ,2,1,0.,24.0,0.,24.0,0.,24.0,0.,24.0
1979-08-07 07:49:18.410 ,2,0,0.,24.0,0.,24.0,0.,24.0,0.,24.0
1979-08-07 07:49:42.410 ,3,1,0.,24.0,0.,24.0,0.,24.0,0.,24.0
1979-08-07 07:50:06.410 ,3,0,0.,24.0,0.,24.0,0.,24.0,0.,24.0
1979-08-07 07:50:30.410 ,4,1,0.,24.0,0.,24.0,0.,24.0,0.,24.0
1979-08-07 07:50:54.410 ,4,0,0.,24.0,0.,24.0,0.,24.0,0.,24.0
1979-08-07 07:51:18.410 ,5,1,0.,24.0,0.,24.0,0.,24.0,0.,24.0
1979-08-07 07:51:42.410 ,5,0,0.,24.0,0.,24.0,0.,24.0,0.,24.0
1979-08-07 07:52:06.410 ,6,1,0.,24.0,0.,24.0,0.,24.0,0.,24.0
1979-08-07 07:52:30.410 ,6,0,0.,24.0,0.,24.0,0.,24.0,0.,24.0
1979-08-07 07:52:54.410 ,7,1,0.,24.0,0.,24.0,0.,24.0,0.,24.0
1979-08-07 07:53:18.410 ,7,0,0.,24.0,0.,24.0,0.,24.0,0.,24.0
1979-08-07 07:53:42.410 ,7,1,0.,24.0,0.,24.0,0.,24.0,0.,24.0
1979-08-07 07:54:06.410 ,7,0,0.,24.0,0.,24.0,0.,24.0,0.,24.0
1979-08-07 07:54:30.410 ,6,1,0.,24.0,0.,24.0,0.,24.0,0.,24.0
1979-08-07 07:54:54.410 ,6,0,0.,24.0,0.,24.0,0.,24.0,0.,24.0
1979-08-07 07:56:06.410 ,0,0,0.,24.0,0.,24.0,0.,24.0,0.,24.0
1979-08-07 07:56:30.410 ,0,0,0.,24.0,0.,24.0,0.,24.0,0.,24.0
1979-08-07 07:56:54.410 ,3,1,0.,24.0,0.,24.0,0.,24.0,0.,24.0
1979-08-07 07:57:18.410 ,3,0,0.,24.0,0.,24.0,0.,24.0,0.,24.0
1979-08-07 07:57:42.410 ,2,1,0.,24.0,0.,24.0,0.,24.0,0.,24.0
1979-08-07 07:58:06.410 ,2,0,0.,24.0,0.,24.0,0.,24.0,0.,24.0
1979-08-07 07:58:30.400 ,1,1,0.,24.0,0.,24.0,0.,24.0,0.,24.0
1979-08-07 07:58:54.400 ,1,0,0.,24.0,0.,24.0,0.,24.0,0.,24.0
1979-08-07 07:59:18.400 ,0,1,0.,24.0,0.,24.0,0.,24.0,0.,24.0
1979-08-07 07:59:42.400 ,0,0,0.,24.0,0.,24.0,0.,24.0,0.,24.0
1979-08-07 08:00:06.400 ,0,1,0.,24.0,0.,24.0,0.,24.0,0.,24.0
1979-08-07 08:00:30.410 ,0,0,0.,24.0,0.,24.0,0.,24.0,0.,24.0
1979-08-07 08:00:54.410 ,1,1,0.,24.0,0.,24.0,0.,24.0,0.,24.0
1979-08-07 08:01:18.400 ,1,0,0.,24.0,0.,24.0,0.,24.0,0.,24.0
1979-08-07 08:01:42.400 ,2,1,0.,24.0,0.,24.0,0.,24.0,0.,24.0
1979-08-07 08:02:06.400 ,2,0,0.,24.0,0.,24.0,0.,24.0,0.,24.0
1979-08-07 08:02:30.410 ,3,1,0.,24.0,0.,24.0,0.,24.0,0.,24.0
1979-08-07 08:02:54.410 ,3,0,0.,24.0,0.,24.0,0.,24.0,0.,24.0
1979-08-07 08:03:18.410 ,4,1,0.,24.0,0.,24.0,0.,24.0,0.,24.0
1979-08-07 08:03:42.410 ,4,0,0.,24.0,0.,24.0,0.,24.0,0.,24.0
1979-08-07 08:04:06.400 ,5,1,0.,24.0,0.,24.0,0.,24.0,0.,24.0
1979-08-07 08:04:30.400 ,5,0,0.,24.0,0.,24.0,0.,24.0,0.,24.0
1979-08-07 08:04:54.400 ,6,1,0.,24.0,0.,24.0,0.,24.0,0.,24.0
1979-08-07 08:05:18.400 ,6,0,0.,24.0,0.,24.0,0.,24.0,0.,24.0
1979-08-07 08:05:42.400 ,7,1,0.,24.0,0.,24.0,0.,24.0,0.,24.0
1979-08-07 08:06:06.400 ,7,0,0.,24.0,0.,24.0,0.,24.0,0.,24.0
1979-08-07 08:06:30.400 ,7,1,0.,24.0,0.,24.0,0.,24.0,0.,24.0
1979-08-07 08:06:54.400 ,7,0,0.,24.0,0.,24.0,0.,24.0,0.,24.0
1979-08-07 08:07:18.400 ,6,1,0.,24.0,0.,24.0,0.,24.0,0.,24.0
1979-08-07 08:07:42.400 ,6,0,0.,24.0,0.,24.0,0.,24.0,0.,24.0
1979-08-07 08:08:06.400 ,5,1,0.,24.0,0.,24.0,0.,24.0,0.,24.0
1979-08-07 08:08:30.400 ,5,0,0.,24.0,0.,24.0,0.,24.0,0.,24.0
1979-08-07 08:08:54.410 ,4,1,0.,24.0,0.,24.0,0.,24.0,0.,24.0
1979-08-07 08:09:18.410 ,4,0,0.,24.0,0.,24.0,0.,24.0,0.,24.0
1979-08-07 08:09:42.410 ,3,1,0.,24.0,0.,24.0,0.,24.0,0.,24.0
1979-08-07 08:10:06.410 ,3,0,0.,24.0,0.,24.0,0.,24.0,0.,24.0
1979-08-07 08:10:30.410 ,2,1,0.,24.0,0.,24.0,0.,24.0,0.,24.0
1979-08-07 08:10:54.410 ,2,0,0.,24.0,0.,24.0,0.,24.0,0.,24.0
1979-08-07 08:11:18.410 ,1,1,0.,24.0,0.,24.0,0.,24.0,0.,24.0
1979-08-07 08:11:42.410 ,1,0,0.,24.0,0.,24.0,0.,24.0,0.,24.0
1979-08-07 08:12:06.410 ,0,1,0.,24.0,0.,24.0,0.,24.0,0.,24.0
1979-08-07 08:12:30.410 ,0,0,0.,24.0,0.,24.0,0.,24.0,0.,24.0
1979-08-07 08:12:54.410 ,0,1,0.,24.0,0.,24.0,0.,24.0,0.,24.0
1979-08-07 08:13:18.410 ,0,0,0.,24.0,0.,24.0,0.,24.0,0.,24.0
1979-08-07 08:13:42.410 ,1,1,0.,24.0,0.,24.0,0.,24.0,0.,24.0
1979-08-07 08:14:06.410 ,1,0,0.,24.0,0.,24.0,0.,24.0,0.,24.0
1979-08-07 08:14:30.410 ,2,1,0.,24.0,0.,24.0,0.,24.0,0.,24.0
1979-08-07 08:14:54.410 ,2,0,0.,24.0,0.,24.0,0.,24.0,0.,24.0
1979-08-07 08:15:18.410 ,3,1,0.,24.0,0.,24.0,0.,24.0,0.,24.0
1979-08-07 08:15:42.410 ,3,0,0.,24.0,0.,24.0,0.,24.0,0.,24.0
1979-08-07 08:16:06.410 ,4,1,0.,24.0,0.,24.0,0.,24.0,0.,24.0
1979-08-07 08:16:30.410 ,4,0,0.,24.0,0.,24.0,0.,24.0,0.,24.0
1979-08-07 08:16:54.410 ,5,1,0.,24.0,0.,24.0,0.,24.0,0.,24.0
1979-08-07 08:17:18.410 ,5,0,0.,24.0,0.,24.0,0.,24.0,0.,24.0
1979-08-07 08:17:42.410 ,6,1,0.,24.0,0.,24.0,0.,24.0,0.,24.0
1979-08-07 08:18:06.410 ,6,0,1.,24.0,0.,24.0,0.,24.0,0.,24.0
1979-08-07 08:18:30.400 ,7,0,0.,24.0,0.,24.0,0.,24.0,0.,24.0
1979-08-07 08:18:54.400 ,7,0,0.,24.0,0.,24.0,0.,24.0,0.,24.0
1979-08-07 08:19:18.400 ,5,1,1.,24.0,0.,24.0,0.,24.0,0.,24.0
1979-08-07 08:19:42.400 ,1,1,0.,24.0,0.,24.0,0.,24.0,0.,24.0
1979-08-07 08:20:06.400 ,2,1,0.,24.0,0.,24.0,0.,24.0,0.,24.0
1979-08-07 08:20:30.400 ,6,1,0.,24.0,0.,24.0,0.,24.0,0.,24.0
1979-08-07 08:20:54.400 ,5,1,0.,24.0,0.,24.0,0.,24.0,0.,24.0
1979-08-07 08:21:18.400 ,1,1,0.,24.0,0.,24.0,0.,24.0,0.,24.0
1979-08-07 08:21:42.400 ,2,1,0.,24.0,0.,24.0,0.,24.0,0.,24.0
1979-08-07 08:22:06.400 ,6,1,0.,24.0,0.,24.0,0.,24.0,0.,24.0
1979-08-07 08:22:30.400 ,5,1,0.,24.0,0.,24.0,0.,24.0,0.,24.0
1979-08-07 08:22:54.400 ,1,1,0.,24.0,0.,24.0,0.,24.0,0.,24.0
1979-08-07 08:23:18.400 ,2,1,0.,24.0,0.,24.0,0.,24.0,0.,24.0
1979-08-07 08:23:42.400 ,6,1,0.,24.0,0.,24.0,0.,24.0,0.,24.0
1979-08-07 08:24:06.400 ,5,1,0.,24.0,0.,24.0,0.,24.0,0.,24.0
1979-08-07 08:24:30.400 ,1,1,0.,24.0,0.,24.0,0.,24.0,0.,24.0
1979-08-07 08:24:54.400 ,2,1,0.,24.0,0.,24.0,0.,24.0,0.,24.0
1979-08-07 08:25:18.400 ,6,1,0.,24.0,0.,24.0,0.,24.0,0.,24.0
1979-08-07 08:25:42.400 ,5,1,0.,24.0,0.,24.0,0.,24.0,0.,24.0
1979-08-07 08:26:06.400 ,1,1,0.,24.0,0.,24.0,0.,24.0,0.,24.0
1979-08-07 08:26:30.400 ,2,1,0.,24.0,0.,24.0,0.,24.0,0.,24.0
1979-08-07 08:26:54.400 ,6,1,0.,24.0,0.,24.0,0.,24.0,0.,24.0
1979-08-07 08:27:18.400 ,5,1,0.,24.0,0.,24.0,0.,24.0,0.,24.0
1979-08-07 08:27:42.400 ,1,1,0.,24.0,0.,24.0,0.,24.0,0.,24.0
1979-08-07 08:28:06.400 ,2,1,0.,24.0,0.,24.0,0.,24.0,0.,24.0
1979-08-07 08:28:30.400 ,6,1,0.,24.0,0.,24.0,0.,24.0,0.,24.0
1979-08-07 08:28:54.400 ,5,1,0.,24.0,0.,24.0,0.,24.0,0.,24.0
1979-08-07 08:29:18.400 ,1,1,0.,24.0,0.,24.0,0.,24.0,0.,24.0
1979-08-07 08:29:42.400 ,0,0,0.,24.0,0.,24.0,0.,24.0,0.,24.0
1979-08-07 08:30:06.400 ,0,0,0.,24.0,0.,24.0,0.,24.0,0.,24.0
1979-08-07 08:30:30.400 ,5,1,0.,24.0,0.,24.0,0.,24.0,0.,24.0
1979-08-07 08:30:54.400 ,5,0,0.,24.0,0.,24.0,0.,24.0,0.,24.0
1979-08-07 08:31:18.400 ,4,1,0.,24.0,0.,24.0,0.,24.0,0.,24.0
1979-08-07 08:31:42.400 ,4,0,0.,24.0,0.,24.0,0.,24.0,0.,24.0
1979-08-07 08:32:06.400 ,3,1,0.,24.0,0.,24.0,0.,24.0,0.,24.0
1979-08-07 08:32:30.400 ,3,0,0.,24.0,0.,24.0,0.,24.0,0.,24.0
1979-08-07 08:32:54.400 ,2,1,0.,24.0,0.,24.0,0.,24.0,0.,24.0
1979-08-07 08:33:18.400 ,2,0,0.,24.0,0.,24.0,0.,24.0,0.,24.0
1979-08-07 08:33:42.400 ,1,1,0.,24.0,0.,24.0,0.,24.0,0.,24.0
1979-08-07 08:34:06.400 ,1,0,0.,24.0,0.,24.0,0.,24.0,0.,24.0
1979-08-07 08:34:30.400 ,0,1,0.,24.0,0.,24.0,0.,24.0,0.,24.0
1979-08-07 08:34:54.400 ,0,0,0.,24.0,0.,24.0,0.,24.0,0.,24.0
1979-08-07 08:35:18.400 ,0,1,0.,24.0,0.,24.0,0.,24.0,0.,24.0